Zurück zum Katalog

DISKSAT A

AktivWissenschaftVLEO
NORAD 67222·PAYLOAD·🇺🇸 United States

Gestartet Dec 18, 2025 von Wallops Flight Facility

Loading…

Nächste Überflüge (nächste 24 Stunden)

TLE

AktuellSource: Space-Track

Epoche: Sep 13, 2026, 21:48 UTC

1 67222U 25305D   26256.90885559  .00003076  00000-0  19897-3 0  9997
2 67222  45.0048 331.7523 0007107 304.6453  55.3753 15.10430844 40727

Verfolge DISKSAT A in Echtzeit mit AllMySat

Download on the App Store